sat.trackr.live / text

‹ back to catalog

STARLINK-3861

NORAD 52503 · 2022-049BE

PAYLOAD ACTIVE UNKNOWN

§ Identity

Operator
Country
US
Launch date
2022-05-06
Launch site
AFETR
Launch vehicle
Mass (kg)
RCS (m²)

Purposes: comms

External: N2YO · Heavens-Above · Gunter

§ Orbital elements

Epoch: 2026-09-19T13:30:11.408256Z

Period
93.79 min
Inclination
53.1598°
Eccentricity
0.0001225
Mean motion
15.35407936 rev/d
Perigee alt
458.9 km
Apogee alt
460.5 km
Semi-major
6,837.8 km
B*
4.4097e-5
RAAN
239.9926°
Arg perigee
94.8151°
Mean anomaly
265.2992°
Rev number
24,191

§ Raw data

STARLINK-38611 52503U 22049BE  26262.56263204  .00001158  00000+0  44097-4 0  99902 52503  53.1598 239.9926 0001225  94.8151 265.2992 15.35407936241911

JSON: /api/v1/satellites/52503 · /tle

For live sub-satellite position, see the globe view (requires WebGL).

§ Visibility from observer

Set your observer location to see the next 7 days of passes ≥ 10°. The values pass through the URL so the page stays shareable.

No JS? Fill the form by hand. The geolocation button needs JavaScript.